| time (UTC) | temp C | wind direction | speed KPH | gust KPH | rain 1hr cm | rain 24hr cm | rain mn cm | humidity % | barometer mb |
| 20260507054548 | 11 | 63 | 4.8 | 16.1 | 0.00 | 0.00 | 0.00 | 80 | 1016.7 |
| 20260507053043 | 11 | 72 | 6.4 | 17.7 | 0.00 | 0.00 | 0.00 | 80 | 1016.5 |
| 20260507051544 | 11 | 26 | 3.2 | 16.1 | 0.00 | 0.00 | 0.00 | 78 | 1016.3 |
| 20260507050042 | 11 | 81 | 4.8 | 14.5 | 0.00 | 0.00 | 0.00 | 77 | 1016.1 |
| 20260507044556 | 11 | 74 | 6.4 | 27.4 | 0.00 | 0.00 | 0.00 | 77 | 1015.9 |
| 20260507043042 | 11 | 59 | 4.8 | 16.1 | 0.00 | 0.00 | 0.00 | 77 | 1016.1 |
| 20260507041550 | 12 | 34 | 3.2 | 9.7 | 0.00 | 0.00 | 0.00 | 77 | 1016.2 |
| 20260507040047 | 12 | 28 | 4.8 | 12.9 | 0.00 | 0.00 | 0.00 | 76 | 1016.2 |
| 20260507034544 | 12 | 90 | 3.2 | 14.5 | 0.00 | 0.00 | 0.00 | 75 | 1016.3 |
| 20260507033055 | 12 | 68 | 6.4 | 16.1 | 0.00 | 0.00 | 0.00 | 75 | 1016.2 |
| 20260507031558 | 12 | 19 | 1.6 | 8.0 | 0.00 | 0.00 | 0.00 | 74 | 1016.1 |
| 20260507030100 | 12 | 24 | 3.2 | 12.9 | 0.00 | 0.00 | 0.00 | 73 | 1015.9 |
| 20260507024552 | 12 | 44 | 3.2 | 8.0 | 0.00 | 0.00 | 0.00 | 73 | 1015.9 |
| 20260507023041 | 13 | 67 | 3.2 | 9.7 | 0.00 | 0.00 | 0.00 | 72 | 1015.8 |
| 20260507021551 | 13 | 80 | 3.2 | 8.0 | 0.00 | 0.00 | 0.00 | 71 | 1015.5 |
| 20260507020054 | 13 | 0 | 1.6 | 12.9 | 0.00 | 0.00 | 0.00 | 71 | 1015.3 |
| 20260507014551 | 13 | 82 | 1.6 | 9.7 | 0.00 | 0.00 | 0.00 | 69 | 1015.1 |
| 20260507013042 | 14 | 67 | 3.2 | 8.0 | 0.00 | 0.00 | 0.00 | 68 | 1015.0 |
| 20260507011547 | 15 | 88 | 3.2 | 8.0 | 0.00 | 0.00 | 0.00 | 65 | 1014.8 |
| 20260507010046 | 15 | 28 | 1.6 | 8.0 | 0.00 | 0.00 | 0.00 | 64 | 1014.8 |
| 20260507004543 | 16 | 41 | 3.2 | 12.9 | 0.00 | 0.00 | 0.00 | 61 | 1014.7 |
| 20260507003043 | 17 | 43 | 3.2 | 14.5 | 0.00 | 0.00 | 0.00 | 60 | 1014.6 |
| 20260507001546 | 16 | 350 | 6.4 | 17.7 | 0.00 | 0.00 | 0.00 | 60 | 1014.4 |
| 20260507000045 | 16 | 329 | 3.2 | 17.7 | 0.00 | 0.00 | 0.00 | 61 | 1014.4 |
| 20260506234553 | 16 | 11 | 4.8 | 16.1 | 0.00 | 0.00 | 0.00 | 61 | 1014.4 |
| 20260506233049 | 17 | 341 | 4.8 | 19.3 | 0.00 | 0.00 | 0.00 | 60 | 1014.3 |
| 20260506231552 | 17 | 5 | 4.8 | 19.3 | 0.00 | 0.00 | 0.00 | 59 | 1014.1 |
| 20260506230040 | 17 | 32 | 4.8 | 16.1 | 0.00 | 0.00 | 0.00 | 59 | 1013.9 |
| 20260506224541 | 18 | 44 | 6.4 | 17.7 | 0.00 | 0.00 | 0.00 | 58 | 1013.6 |
| 20260506223044 | 18 | 34 | 6.4 | 17.7 | 0.00 | 0.00 | 0.00 | 56 | 1013.4 |
| 20260506221545 | 19 | 9 | 4.8 | 17.7 | 0.00 | 0.00 | 0.00 | 55 | 1013.4 |
| 20260506220043 | 20 | 17 | 3.2 | 11.3 | 0.00 | 0.00 | 0.00 | 54 | 1013.4 |
| 20260506214545 | 20 | 360 | 4.8 | 14.5 | 0.00 | 0.00 | 0.00 | 52 | 1013.2 |
| 20260506213040 | 20 | 350 | 6.4 | 16.1 | 0.00 | 0.00 | 0.00 | 52 | 1013.1 |
| 20260506211550 | 20 | 349 | 4.8 | 19.3 | 0.00 | 0.00 | 0.00 | 53 | 1013.4 |
| 20260506210045 | 20 | 345 | 4.8 | 14.5 | 0.00 | 0.00 | 0.00 | 53 | 1013.4 |
| 20260506204543 | 20 | 5 | 4.8 | 14.5 | 0.00 | 0.00 | 0.00 | 53 | 1013.4 |
| 20260506203042 | 21 | 30 | 3.2 | 16.1 | 0.00 | 0.00 | 0.00 | 56 | 1013.5 |
| 20260506201541 | 20 | 51 | 4.8 | 17.7 | 0.00 | 0.00 | 0.00 | 54 | 1013.8 |
| 20260506200040 | 20 | 331 | 4.8 | 16.1 | 0.00 | 0.00 | 0.00 | 55 | 1013.8 |
| 20260506194544 | 19 | 16 | 4.8 | 17.7 | 0.00 | 0.00 | 0.00 | 56 | 1013.9 |
| 20260506193044 | 19 | 63 | 4.8 | 14.5 | 0.00 | 0.00 | 0.00 | 55 | 1014.0 |
| 20260506191542 | 18 | 327 | 3.2 | 19.3 | 0.00 | 0.00 | 0.00 | 55 | 1014.2 |
| 20260506190049 | 18 | 17 | 3.2 | 14.5 | 0.00 | 0.00 | 0.00 | 57 | 1014.4 |
| 20260506184547 | 17 | 347 | 4.8 | 17.7 | 0.00 | 0.00 | 0.00 | 60 | 1014.4 |
| 20260506183048 | 17 | 309 | 3.2 | 17.7 | 0.00 | 0.00 | 0.00 | 59 | 1014.6 |
| 20260506181543 | 16 | 319 | 4.8 | 16.1 | 0.00 | 0.00 | 0.00 | 61 | 1014.9 |
| 20260506180046 | 16 | 350 | 6.4 | 17.7 | 0.00 | 0.00 | 0.00 | 62 | 1015.1 |
| 20260506174542 | 15 | 22 | 6.4 | 22.5 | 0.00 | 0.00 | 0.00 | 63 | 1015.2 |
| 20260506173113 | 14 | 13 | 8.0 | 22.5 | 0.00 | 0.00 | 0.00 | 66 | 1015.1 |
| 20260506171539 | 13 | 347 | 8.0 | 20.9 | 0.00 | 0.00 | 0.00 | 70 | 1015.1 |
| 20260506170046 | 12 | 345 | 8.0 | 19.3 | 0.00 | 0.00 | 0.00 | 73 | 1015.3 |
| 20260506164548 | 12 | 352 | 4.8 | 24.1 | 0.00 | 0.00 | 0.00 | 74 | 1015.3 |
| 20260506163043 | 12 | 352 | 8.0 | 22.5 | 0.00 | 0.00 | 0.00 | 74 | 1015.2 |
| 20260506161542 | 12 | 352 | 6.4 | 24.1 | 0.00 | 0.00 | 0.00 | 75 | 1014.8 |
| 20260506160040 | 11 | 327 | 6.4 | 20.9 | 0.00 | 0.00 | 0.00 | 78 | 1014.6 |
| 20260506154545 | 10 | 318 | 9.7 | 22.5 | 0.00 | 0.00 | 0.00 | 80 | 1014.3 |
| 20260506153047 | 10 | 338 | 9.7 | 22.5 | 0.00 | 0.00 | 0.00 | 83 | 1014.4 |
| 20260506151545 | 10 | 344 | 11.3 | 24.1 | 0.00 | 0.00 | 0.00 | 84 | 1014.4 |
| 20260506150044 | 9 | 331 | 11.3 | 29.0 | 0.00 | 0.00 | 0.00 | 84 | 1014.1 |
| 20260506144544 | 10 | 352 | 11.3 | 27.4 | 0.00 | 0.00 | 0.00 | 83 | 1014.0 |
| 20260506143037 | 9 | 303 | 8.0 | 20.9 | 0.00 | 0.00 | 0.00 | 84 | 1014.3 |
| 20260506141543 | 9 | 20 | 4.8 | 16.1 | 0.00 | 0.00 | 0.00 | 85 | 1014.5 |
| 20260506140043 | 9 | 44 | 6.4 | 14.5 | 0.00 | 0.00 | 0.00 | 84 | 1014.7 |
| 20260506134542 | 9 | 352 | 6.4 | 20.9 | 0.00 | 0.00 | 0.00 | 85 | 1014.9 |
| 20260506133041 | 9 | 352 | 6.4 | 16.1 | 0.00 | 0.00 | 0.00 | 85 | 1014.5 |
| 20260506131548 | 9 | 13 | 4.8 | 12.9 | 0.00 | 0.00 | 0.00 | 85 | 1014.4 |
| 20260506130052 | 8 | 352 | 8.0 | 19.3 | 0.00 | 0.00 | 0.00 | 85 | 1013.6 |
| 20260506124552 | 8 | 9 | 6.4 | 16.1 | 0.00 | 0.00 | 0.00 | 85 | 1013.8 |
| 20260506123043 | 8 | 360 | 4.8 | 14.5 | 0.00 | 0.00 | 0.00 | 85 | 1013.8 |
| 20260506121542 | 8 | 5 | 4.8 | 22.5 | 0.00 | 0.00 | 0.00 | 85 | 1013.3 |
| 20260506120040 | 8 | 20 | 6.4 | 19.3 | 0.00 | 0.00 | 0.00 | 85 | 1012.8 |
| 20260506114546 | 9 | 26 | 8.0 | 20.9 | 0.00 | 0.00 | 0.00 | 84 | 1012.2 |
| 20260506113052 | 9 | 360 | 6.4 | 17.7 | 0.00 | 0.00 | 0.00 | 84 | 1012.4 |
| 20260506111544 | 10 | 55 | 6.4 | 19.3 | 0.00 | 0.00 | 0.00 | 83 | 1012.1 |
| 20260506110051 | 10 | 342 | 6.4 | 17.7 | 0.00 | 0.00 | 0.00 | 84 | 1012.0 |
| 20260506104548 | 10 | 21 | 3.2 | 17.7 | 0.00 | 0.00 | 0.00 | 85 | 1012.2 |
| 20260506103047 | 10 | 352 | 6.4 | 17.7 | 0.00 | 0.00 | 0.00 | 85 | 1011.9 |
| 20260506101555 | 9 | 24 | 6.4 | 16.1 | 0.00 | 0.00 | 0.00 | 85 | 1012.0 |
| 20260506100101 | 9 | 348 | 4.8 | 16.1 | 0.00 | 0.00 | 0.00 | 85 | 1011.6 |
| 20260506094543 | 9 | 44 | 4.8 | 16.1 | 0.00 | 0.00 | 0.00 | 85 | 1011.1 |
| 20260506093046 | 9 | 336 | 6.4 | 19.3 | 0.00 | 0.00 | 0.00 | 85 | 1011.1 |
| 20260506091540 | 9 | 40 | 1.6 | 14.5 | 0.00 | 0.00 | 0.00 | 85 | 1011.0 |
| 20260506090035 | 9 | 352 | 4.8 | 14.5 | 0.00 | 0.00 | 0.00 | 84 | 1010.9 |
| 20260506084604 | 10 | 9 | 4.8 | 16.1 | 0.00 | 0.00 | 0.00 | 84 | 1010.8 |
| 20260506083044 | 10 | 54 | 4.8 | 14.5 | 0.00 | 0.00 | 0.00 | 83 | 1010.7 |
| 20260506081550 | 10 | 13 | 4.8 | 16.1 | 0.00 | 0.00 | 0.00 | 83 | 1010.7 |
| 20260506073048 | 11 | 29 | 6.4 | 14.5 | 0.00 | 0.00 | 0.00 | 83 | 1011.0 |
| 20260506071545 | 11 | 21 | 6.4 | 16.1 | 0.00 | 0.00 | 0.00 | 83 | 1010.9 |
| 20260506061539 | 11 | 14 | 4.8 | 14.5 | 0.00 | 0.00 | 0.00 | 81 | 1010.8 |